Regional Weather Roundup
Issued by NWS

Home | Current Version | Previous Version | Graphics & Text | Print | Product List | Glossary Off
Versions: 1 2 3 4 5 6 7 8 9 10 11 12 13 14 15 16 17 18 19 20 21 22 23 24 25 26 27 28 29 30 31 32 33 34 35 36 37 38 39 40 41 42 43 44 45 46 47 48 49 50

000
ASUS43 KTOP 241159
RWRKS

WEATHER ROUNDUP FOR KANSAS
NATIONAL WEATHER SERVICE GOODLAND KS
700 AM CDT SUN MAY 24 2015

NOTE:  "FAIR" INDICATES FEW OR NO CLOUDS BELOW 12,000 FEET WITH NO
SIGNIFICANT WEATHER AND/OR OBSTRUCTIONS TO VISIBILITY.

KSZ001>006-013>018-027>032-041>047-241300-
NORTHWEST KANSAS

CITY           SKY/WX    TMP DP  RH WIND       PRES   REMARKS
GOODLAND       CLOUDY    52  51  97 S8        29.89S
6HR MIN TEMP:  50; 6HR MAX TEMP:  55; 6HR PCP:  0.08;

HAYS           CLOUDY    55  50  82 SE3       29.88F VSB<1/4
HILL CITY      CLOUDY    57  56  96 CALM      29.90R
6HR MIN TEMP:  57; 6HR MAX TEMP:  58; 6HR PCP: TRACE;

RUSSELL        CLOUDY    57  57 100 E7        29.88S FOG
6HR MIN TEMP:  55; 6HR MAX TEMP:  60;

$$

KSZ061>065-074>080-084>089-241300-
SOUTHWEST KANSAS

CITY           SKY/WX    TMP DP  RH WIND       PRES   REMARKS
DODGE CITY     FOG       57  55  93 SE6       29.89R VSB 1/4
6HR MIN TEMP:  57; 6HR MAX TEMP:  58;

ELKHART          N/A     54  52  94 SW3         N/A
GARDEN CITY    FOG       55  55 100 SE3       29.87S VSB 1/2
6HR MIN TEMP:  55; 6HR MAX TEMP:  56;

GREAT BEND     CLOUDY    57  54  88 SE6       29.90R VSB<1/4
LIBERAL        CLOUDY    59  54  82 S6        29.88F
$$

KSZ066>073-081>083-090>101-241300-
SOUTHEAST KANSAS

CITY           SKY/WX    TMP DP  RH WIND       PRES   REMARKS
CHANUTE        LGT RAIN  63  62  97 SW6       29.93R
6HR MIN TEMP:  63; 6HR MAX TEMP:  65; 6HR PCP:  0.01;

COFFEYVILLE    LGT RAIN  63  62  97 SE5       29.91S
6HR MIN TEMP:  63; 6HR MAX TEMP:  64; 6HR PCP:  0.05;

HUTCHINSON     CLOUDY    59  56  89 CALM      29.90S
6HR MIN TEMP:  58; 6HR MAX TEMP:  60; 6HR PCP: TRACE;

NEWTON         CLOUDY    57  54  88 CALM      29.93F
PARSONS        LGT RAIN  63  63 100 S3        29.93S
6HR MIN TEMP:  63; 6HR MAX TEMP:  65; 6HR PCP:  0.02;

WICHITA INTL   CLOUDY    60  58  92 E5        29.90F
6HR MIN TEMP:  58; 6HR MAX TEMP:  61; 6HR PCP:  0.01;

WICHITA JABRA  CLOUDY    58  57  97 E5        29.90S
6HR MIN TEMP:  57; 6HR MAX TEMP:  61; 6HR PCP:  0.01;

WINFIELD       CLOUDY    61  60  97 E5        29.91F
6HR MIN TEMP:  60; 6HR MAX TEMP:  61; 6HR PCP:  0.01;

$$

KSZ007>012-019>026-033>040-048>060-102>105-241300-
NORTHEAST KANSAS

CITY           SKY/WX    TMP DP  RH WIND       PRES   REMARKS
CONCORDIA      CLOUDY    60  59  96 W7        29.90R FOG
6HR MIN TEMP:  59; 6HR MAX TEMP:  61; 6HR PCP:  0.01;

EMPORIA        CLOUDY    60  59  96 S6        29.91R
6HR MIN TEMP:  59; 6HR MAX TEMP:  64; 6HR PCP:  0.05;

LAWRENCE       CLOUDY    64  62  93 SW6       29.90R
6HR MIN TEMP:  63; 6HR MAX TEMP:  64; 6HR PCP:  0.21;

MANHATTAN      CLOUDY    62  62 100 SW7       29.90R
6HR MIN TEMP:  61; 6HR MAX TEMP:  63; 6HR PCP:  0.05;

OLATHE IND     LGT RAIN  64  64 100 S8        29.90R
6HR MIN TEMP:  62; 6HR MAX TEMP:  64; 6HR PCP:  0.18;

OLATHE EXE     LGT RAIN  64  64 100 S12       29.89R FOG
6HR MIN TEMP:  62; 6HR MAX TEMP:  64; 6HR PCP:  0.24;

SALINA         FOG       59  58  96 SE6       29.91R VSB 1/4
6HR MIN TEMP:  57; 6HR MAX TEMP:  61;

TOPEKA BILLARD CLOUDY    64  61  90 SW6       29.89R
6HR MIN TEMP:  63; 6HR MAX TEMP:  65; 6HR PCP:  0.08;

TOPEKA FORBES  CLOUDY    64  60  87 SW9       29.89R
6HR MIN TEMP:  64; 6HR MAX TEMP:  66; 6HR PCP:  0.07;

$$



USA.gov is the U.S. government's official web portal to all federal, state and local government web resources and services.